Airfield :
LOGIN :

Register | Disclaimer

   EN    FR    IT 

 










Legend :    VFR   Marginal VFR   IFR   Intensive IFR   Very Intensive IFR
Visi :
Ceiling :
>= 8 km
>= 3000ft
5 to 8 km
1000 to 3000 ft
1500m to 5 km
500 to 1000 ft
800 to 1500m
200 to 500 ft
< 800m
< 200 ft
Symbols :   Thunderstorms  Fog  Heavy snow  Heavy precipitations  Wind > 20 kt
SIGMETs :     Misc.  Thunderstorms  Icing  Turbulence  Mountain Waves  Volcanic Ashes






- Airport Elevation : 156 ft
- IATA code : LCC


LIBN - Lecce Galatine (military)

CURRENT METAR :
  • 181855Z 27005KT 9999 FEW040 02/00 Q1022 RMK FEW VIS MIN 9999 WIND THR14 28005KT WIND THR32 27006KT BLU

EXPIRED METARs :
  • 181755Z 28006KT 9999 FEW035 SCT050 02/M01 Q1022 RMK SCT VIS MIN 9999 WIND THR14 29005KT WIND THR32 28006KT BLU
  • 181655Z 29006KT 9999 FEW035 02/M01 Q1022 RMK SCT SCT060 VIS MIN 9999 WIND THR14 29006KT WIND THR32 30007KT BLU

TAF TAF LIBN
Valid from the 18 at 15:00 until the 19 at 00:00 UTC


181400Z 1815/1824 35012KT 9999 SCT020 SCT040



MET'MAP, your aeronautical weather chart ! - Copyright ORBIFLY December 2007 - Disclaimer

ORBIFLY MET'MAP TEAM :

Programming & Development : Alexandra Zaïnal
Concept & original design : Baudouin d'Aumeries
Assistance for programming : Marc-Olivier Méhu
Technical & hardware support : Manuel Goepfert

Contact : metmap@orbifly.com




SOURCES & CREDITS :

   NOAA